Regional Weather Roundup
Issued by NWS

Home | Current Version | Previous Version | Text Only | Print | Product List | Glossary On
Versions: 1 2 3 4 5 6 7 8 9 10 11 12 13 14 15 16 17 18 19 20 21 22 23 24 25 26 27
000
ASUS44 KBMX 230310
RWRAL

ALABAMA REGIONAL WEATHER ROUNDUP
NATIONAL WEATHER SERVICE BIRMINGHAM AL
900 PM CST SUN JAN 22 2017

NOTE: "FAIR" INDICATES FEW OR NO CLOUDS BELOW 12,000 FEET
WITH NO SIGNIFICANT WEATHER AND/OR OBSTRUCTIONS TO VISIBILITY.

THE REMARK "TC" DENOTES TEMPERATURE IN DEGREES CELSIUS.

ALZ001>011-014-016>018-020-230400-
NORTH ALABAMA

CITY           SKY/WX    TMP DP  RH WIND       PRES   REMARKS
MUSCLE SHOALS  CLOUDY    53  51  93 NW9       29.28R
HUNTSVILLE     HVY RAIN  52  51  97 W14       29.24S FOG
DECATUR        HVY RAIN  51  51 100 SW10      29.25S FOG
HALEYVILLE     HVY RAIN  50  48  93 SW6       29.31S
GADSDEN        RAIN      49  48  97 SW12      29.27F
$$

ALZ012-013-022-023-030>036-040>044-230400-
WEST CENTRAL ALABAMA

CITY           SKY/WX    TMP DP  RH WIND       PRES   REMARKS
TUSCALOOSA     RAIN      50  49  96 W8        29.37R FOG
$$

ALZ015-024>027-033>036-040>044-230400-
CENTRAL ALABAMA

CITY           SKY/WX    TMP DP  RH WIND       PRES   REMARKS
BIRMINGHAM     LGT RAIN  50  48  93 W13       29.33R
MONTGOMERY     CLOUDY    52  46  80 SW9       29.39S
SHELBY CO ARPT CLOUDY    50  49  96 SW7       29.34R
MAXWELL AFB    NOT AVBL
GREENVILLE     MOCLDY    52  45  77 W9        29.40R
$$

ALZ019-021-028-029-037-038-045>048-230400-
EAST CENTRAL ALABAMA

CITY           SKY/WX    TMP DP  RH WIND       PRES   REMARKS
ANNISTON       CLOUDY    51  49  92 SW13      29.29S
ALEXANDER CITY CLOUDY    52  51  94 SW6       29.34S
AUBURN         HVY RAIN  51  48  89 SW8       29.37R
$$

ALZ051>064-230400-
SOUTHWEST ALABAMA

CITY           SKY/WX    TMP DP  RH WIND       PRES   REMARKS
MOBILE         CLEAR     56  40  55 W8        29.48R
BROOKLEY FIELD CLEAR     59  42  53 W8        29.48S
EVERGREEN      MOCLDY    57  41  55 VRB5      29.43R
$$

ALZ049-050-065>069-230400-
SOUTHEAST ALABAMA

CITY           SKY/WX    TMP DP  RH WIND       PRES   REMARKS
DOTHAN         CLOUDY    54  50  86 SW8       29.42S
OZARK          MOCLDY    56  47  73 SW9       29.40R
TROY           MOCLDY    53  48  83 W14G25    29.41R
EUFAULA        FAIR      49  47  93 CALM      29.36S
$$




USA.gov is the U.S. government's official web portal to all federal, state and local government web resources and services.